Poteau, OK

8:48 PM CST on December 04, 2016 (GMT -0600)
Kerr

Weather History for KRKR - December, 2013

Change the Weather History Date:

Friday, December 6, 2013

  Actual Average (KFSM) Record (KFSM)
Temperature  
Mean Temperature 28 °F 43 °F  
Max Temperature 32 °F 54 °F 77 °F (1932)
Min Temperature 23 °F 33 °F 9 °F (1950)
Degree Days  
Heating Degree Days 38 22  
Month to date heating degree days 125  
Since 1 July heating degree days 690  
Moisture  
Dew Point 25 °F    
Average Humidity 94    
Maximum Humidity 100    
Minimum Humidity 86    
Precipitation  
Precipitation 0.00 in 0.12 in 2.25 in (1935)
Month to date precipitation 0.75  
Year to date precipitation 42.92  
Sea Level Pressure  
Sea Level Pressure 30.35 in    
Wind  
Wind Speed 0 mph (North)    
Max Wind Speed 0 mph    
Max Gust Speed -    
Visibility 3 miles    
Events Snow    
T = Trace of Precipitation, MM = Missing Value Source: NWS Daily Summary

Daily Weather History Graph

Daily Weather History Graph

Search for Another Location

Airport or City:

Trip Planner

Search our weather history database for the weather conditions in past years. The results will help you decide how hot, cold, wet, or windy it might be!

Date:

Astronomy

Dec. 06, 2013 Rise Set
Actual Time 7:12 AM CST 5:06 PM CST
Civil Twilight 6:44 AM CST 5:34 PM CST
Nautical Twilight 6:13 AM CST 6:06 PM CST
Astronomical Twilight 5:42 AM CST 6:36 PM CST
Moon 10:24 AM CST (12/6) 9:33 PM CST (12/6)
Length of Visible Light 10h 49m
Length of Day
9h 53m
Waxing Crescent, 19% of the Moon is Illuminated
Dec 6
Waxing Crescent
Dec 9
First Quarter
Dec 17
Full
Dec 25
Last Quarter
Jan 1
New

Hourly Weather History & Observations

Time (CST) Temp. Dew Point Humidity Pressure Visibility Wind Dir Wind Speed Gust Speed Precip Events Conditions
12:15 AM 32.0 °F 32.0 °F 100% 30.21 in 3.0 mi Calm Calm - N/A   Unknown
12:35 AM 32.0 °F 32.0 °F 100% 30.21 in 2.5 mi Calm Calm - N/A   Unknown
12:55 AM 32.0 °F 32.0 °F 100% 30.21 in 2.5 mi Calm Calm - N/A   Unknown
1:15 AM 32.0 °F 32.0 °F 100% 30.19 in 2.5 mi Calm Calm - N/A   Unknown
1:35 AM 32.0 °F 32.0 °F 100% 30.20 in 1.2 mi Calm Calm - N/A Snow Light Snow
1:55 AM 32.0 °F 32.0 °F 100% 30.19 in 1.8 mi Calm Calm - N/A   Unknown
2:15 AM 30.2 °F 30.2 °F 100% 30.20 in 2.0 mi Calm Calm - N/A Snow Light Snow
2:35 AM 30.2 °F 28.4 °F 93% 30.18 in 2.0 mi Calm Calm - N/A Snow Light Snow
2:55 AM 30.2 °F 28.4 °F 93% 30.20 in 2.5 mi Calm Calm - N/A Snow Light Snow
3:15 AM 30.2 °F 28.4 °F 93% 30.21 in 2.5 mi Calm Calm - N/A Snow Light Snow
3:35 AM 30.2 °F 28.4 °F 93% 30.22 in 2.0 mi Calm Calm - N/A Snow Light Snow
3:55 AM 30.2 °F 28.4 °F 93% 30.21 in 2.5 mi Calm Calm - N/A Snow Light Snow
4:15 AM 28.4 °F 28.4 °F 100% 30.20 in 2.5 mi Calm Calm - N/A Snow Light Snow
4:35 AM 28.4 °F 26.6 °F 93% 30.22 in 2.5 mi Calm Calm - N/A Snow Light Snow
4:55 AM 28.4 °F 26.6 °F 93% 30.19 in 3.0 mi Calm Calm - N/A Snow Light Snow
5:15 AM 28.4 °F 26.6 °F 93% 30.21 in 2.5 mi Calm Calm - N/A Snow Light Snow
5:35 AM 26.6 °F 26.6 °F 100% 30.24 in 2.5 mi Calm Calm - N/A Snow Light Snow
5:55 AM 26.6 °F 26.6 °F 100% 30.24 in 2.0 mi Calm Calm - N/A Snow Light Snow
6:15 AM 26.6 °F 26.6 °F 100% 30.25 in 2.0 mi Calm Calm - N/A Snow Light Snow
6:35 AM 26.6 °F 26.6 °F 100% 30.25 in 2.5 mi Calm Calm - N/A Snow Light Snow
6:55 AM 26.6 °F 26.6 °F 100% 30.24 in 3.0 mi Calm Calm - N/A Snow Light Snow
7:15 AM 26.6 °F 24.8 °F 93% 30.24 in 2.0 mi Calm Calm - N/A Snow Light Snow
7:35 AM 26.6 °F 24.8 °F 93% 30.25 in 2.5 mi Calm Calm - N/A Snow Light Snow
7:55 AM 26.6 °F 24.8 °F 93% 30.26 in 2.0 mi Calm Calm - N/A Snow Light Snow
8:15 AM 26.6 °F 24.8 °F 93% 30.28 in 1.5 mi Calm Calm - N/A Snow Light Snow
8:35 AM 26.6 °F 24.8 °F 93% 30.31 in 1.2 mi Calm Calm - N/A Snow Light Snow
8:55 AM 26.6 °F 24.8 °F 93% 30.31 in 1.0 mi Calm Calm - N/A Snow Light Snow
9:15 AM 26.6 °F 24.8 °F 93% 30.32 in 0.8 mi Calm Calm - N/A Snow Light Snow
9:35 AM 26.6 °F 23.0 °F 86% 30.33 in 0.5 mi Calm Calm - N/A Snow Snow
9:55 AM 24.8 °F 24.8 °F 100% 30.34 in 0.2 mi Calm Calm - N/A Snow Snow
10:15 AM 24.8 °F 24.8 °F 100% 30.33 in 0.5 mi Calm Calm - N/A Snow Snow
10:35 AM 24.8 °F 24.8 °F 100% 30.34 in 0.5 mi Calm Calm - N/A Snow Snow
10:55 AM 26.6 °F 24.8 °F 93% 30.35 in 0.5 mi Calm Calm - N/A Snow Snow
11:15 AM 24.8 °F 24.8 °F 100% 30.34 in 0.2 mi Calm Calm - N/A Snow Snow
11:35 AM 26.6 °F 24.8 °F 93% 30.35 in 0.5 mi Calm Calm - N/A Snow Light Snow
11:55 AM 26.6 °F 24.8 °F 93% 30.35 in 0.5 mi Calm Calm - N/A Snow Light Snow
12:15 PM 26.6 °F 24.8 °F 93% 30.34 in 1.2 mi Calm Calm - N/A Snow Light Snow
12:35 PM 26.6 °F 24.8 °F 93% 30.34 in 1.0 mi Calm Calm - N/A Snow Light Snow
12:55 PM 26.6 °F 23.0 °F 86% 30.35 in 2.5 mi Calm Calm - N/A   Unknown
1:15 PM 26.6 °F 24.8 °F 93% 30.35 in 2.5 mi Calm Calm - N/A   Mist
1:35 PM 26.6 °F 24.8 °F 93% 30.35 in 3.0 mi Calm Calm - N/A   Mist
1:55 PM 26.6 °F 24.8 °F 93% 30.36 in 3.0 mi Calm Calm - N/A   Mist
2:15 PM 26.6 °F 24.8 °F 93% 30.37 in 3.0 mi Calm Calm - N/A   Mist
2:35 PM 26.6 °F 26.6 °F 100% 30.37 in 3.0 mi Calm Calm - N/A   Mist
2:55 PM 26.6 °F 24.8 °F 93% 30.37 in 3.0 mi Calm Calm - N/A   Mist
3:15 PM 26.6 °F 26.6 °F 100% 30.37 in 2.0 mi Calm Calm - N/A   Mist
3:35 PM 26.6 °F 26.6 °F 100% 30.38 in 3.0 mi Calm Calm - N/A   Mist
3:55 PM 26.6 °F 24.8 °F 93% 30.39 in 3.0 mi Calm Calm - N/A   Mist
4:15 PM 26.6 °F 24.8 °F 93% 30.41 in 3.0 mi Calm Calm - N/A   Mist
4:35 PM 26.6 °F 23.0 °F 86% 30.41 in 3.0 mi Calm Calm - N/A   Mist
5:55 PM 24.8 °F 23.0 °F 93% 30.45 in 5.0 mi Calm Calm - N/A   Mist
6:15 PM 24.8 °F 23.0 °F 93% 30.47 in 4.0 mi Calm Calm - N/A   Mist
6:35 PM 24.8 °F 23.0 °F 93% 30.48 in 4.0 mi Calm Calm - N/A   Mist
6:55 PM 24.8 °F 23.0 °F 93% 30.48 in 4.0 mi Calm Calm - N/A   Mist
7:15 PM 24.8 °F 23.0 °F 93% 30.49 in 4.0 mi Calm Calm - N/A   Mist
7:35 PM 24.8 °F 23.0 °F 93% 30.50 in 2.5 mi Calm Calm - N/A Snow Light Snow
7:55 PM 24.8 °F 23.0 °F 93% 30.50 in 4.0 mi Calm Calm - N/A   Mist
8:15 PM 24.8 °F 23.0 °F 93% 30.50 in 4.0 mi Calm Calm - N/A   Mist
8:35 PM 24.8 °F 23.0 °F 93% 30.51 in 4.0 mi Calm Calm - N/A   Mist
8:55 PM 24.8 °F 23.0 °F 93% 30.51 in 4.0 mi Calm Calm - N/A   Mist
9:15 PM 24.8 °F 23.0 °F 93% 30.52 in 4.0 mi Calm Calm - N/A   Mist
9:35 PM 24.8 °F 21.2 °F 86% 30.53 in 4.0 mi Calm Calm - N/A   Mist
9:55 PM 24.8 °F 21.2 °F 86% 30.53 in 4.0 mi Calm Calm - N/A   Mist
10:15 PM 24.8 °F 21.2 °F 86% 30.54 in 4.0 mi Calm Calm - N/A   Mist
10:35 PM 24.8 °F 21.2 °F 86% 30.54 in 5.0 mi Calm Calm - N/A   Mist
10:55 PM 24.8 °F 21.2 °F 86% 30.55 in 4.0 mi Calm Calm - N/A   Mist
11:15 PM 23.0 °F 21.2 °F 93% 30.55 in 5.0 mi Calm Calm - N/A   Mist
11:35 PM 23.0 °F 21.2 °F 93% 30.54 in 5.0 mi Calm Calm - N/A   Mist
11:55 PM 23.0 °F 21.2 °F 93% 30.55 in 5.0 mi Calm Calm - N/A   Mist